Location: Recife
(8.0585°S, 34.8848°W)
Time: 07:44:24
(UTC-03:00)

Courier 1B - Pass Details

Date: 16 April 2026
Orbit: 962 x 1209 km, 28.3° (Epoch: 13 May)

Event Time Altitude Azimuth Distance (km) Brightness Sun altitude
Rises 06:19:37 0° 278° (W) 4,018 10.1 13.2°
Reaches altitude 10° 06:22:36 10° 271° (W) 3,086 9.6 13.9°
Maximum altitude 06:29:44 40° 204° (SSW) 1,700 8.7 15.6°
Drops below altitude 10° 06:37:02 10° 136° (SE) 3,148 10.7 17.4°
Sets 06:40:07 0° 129° (SE) 4,106 11.3 18.1°
